Date String (YYYY-MM-DD hh:mm:ss) UTC,Instrument flags,Ambient pressure (hPa),Sample flow (lpm),Bypass flow (lpm),Sample temperature (°C),Ambient temperature (°C),ASC tube jacket temperature (°C),LED temperature (°C),Box temperature (°C),Sample RH (%),Span deviation,Mass concentration (μg/m³),Mass concentration (μg/m³),Mass concentration (μg/m³)
DateTimeUTC,F1_M11,P_M11,Q1_M11,Q2_M11,T1_M11,T2_M11,T3_M11,T4_M11,T5_M11,U1_M11,ZSPAN_M11,X0_M11,X2_M11,X1_M11
2021-11-04 13:00:00,,0829.5,4.99,0.00,24.3,23.3,00.0,33.3,26.0,16.0,0000.0,0004.09,0003.21,0003.05
2021-11-04 13:01:00,,0829.5,5.01,0.00,24.2,23.3,00.0,33.3,26.0,16.0,0000.0,0003.87,0003.17,0003.02
2021-11-04 13:02:00,,0829.6,5.00,0.00,24.2,23.3,00.0,33.3,26.0,16.0,0000.0,0003.65,0003.17,0003.00
2021-11-04 13:03:00,,0829.5,5.00,0.00,24.3,23.3,00.0,33.3,26.0,16.0,0000.0,0003.68,0003.15,0002.97
2021-11-04 13:04:00,,0829.6,4.99,0.00,24.3,23.3,00.0,33.3,26.0,16.0,0000.0,0003.68,0003.14,0002.94
2021-11-04 13:05:00,,0829.6,5.00,0.00,24.2,23.3,00.0,33.3,26.0,16.0,0000.0,0003.67,0003.12,0002.89
2021-11-04 13:06:00,,0829.6,5.01,0.00,24.3,23.3,00.0,33.3,26.0,16.0,0000.0,0003.70,0003.10,0002.87
2021-11-04 13:07:00,,0829.6,5.00,0.00,24.3,23.3,00.0,33.3,26.1,16.0,0000.0,0003.72,0003.10,0002.86
2021-11-04 13:08:00,,0829.6,5.00,0.00,24.2,23.3,00.0,33.3,26.0,16.0,0000.0,0003.61,0003.06,0002.85
2021-11-04 13:09:00,,0829.6,4.99,0.00,24.3,23.3,00.0,33.3,26.1,16.0,0000.0,0003.60,0003.05,0002.85
2021-11-04 13:10:00,,0829.5,5.01,0.00,24.2,23.3,00.0,33.3,26.0,16.0,0000.0,0003.72,0003.08,0002.85
2021-11-04 13:11:00,,0829.6,5.00,0.00,24.2,23.3,00.0,33.3,26.0,16.0,0000.0,0003.78,0003.10,0002.86
2021-11-04 13:12:00,,0829.5,5.01,0.00,24.2,23.3,00.0,33.3,26.0,16.0,0000.0,0003.79,0003.10,0002.86
2021-11-04 13:13:00,,0829.5,5.00,0.00,24.2,23.3,00.0,33.3,26.0,16.0,0000.0,0003.84,0003.09,0002.88
2021-11-04 13:14:00,,0829.6,5.01,0.00,24.2,23.3,00.0,33.3,26.0,16.0,0000.0,0003.80,0003.09,0002.89
2021-11-04 13:15:00,,0829.6,4.99,0.00,24.2,23.3,00.0,33.3,26.0,16.0,0000.0,0003.71,0003.08,0002.89
2021-11-04 13:16:00,,0829.6,4.99,0.00,24.2,23.3,00.0,33.3,26.0,16.0,0000.0,0003.68,0003.09,0002.90
2021-11-04 13:17:00,,0829.6,5.00,0.00,24.2,23.3,00.0,33.3,26.0,16.0,0000.0,0003.61,0003.07,0002.90
2021-11-04 13:18:00,,0829.6,5.01,0.00,24.2,23.3,00.0,33.3,26.0,16.0,0000.0,0003.49,0003.05,0002.90
2021-11-04 13:19:00,,0829.6,5.00,0.00,24.2,23.3,00.0,33.3,26.0,16.0,0000.0,0003.66,0003.10,0002.91
2021-11-04 13:20:00,,0829.6,5.00,0.00,24.2,23.3,00.0,33.3,26.0,16.1,0000.0,0003.70,0003.11,0002.90
2021-11-04 13:21:00,,0829.6,5.01,0.00,24.2,23.3,00.0,33.3,26.0,16.1,0000.0,0003.66,0003.07,0002.87
2021-11-04 13:22:00,,0829.6,4.98,0.00,24.2,23.3,00.0,33.3,26.0,16.1,0000.0,0003.58,0003.04,0002.85
2021-11-04 13:23:00,,0829.5,5.00,0.00,24.2,23.3,00.0,33.3,26.0,16.1,0000.0,0003.57,0003.03,0002.84
2021-11-04 13:24:00,,0829.6,5.01,0.00,24.2,23.3,00.0,33.3,26.0,16.1,0000.0,0003.54,0003.01,0002.82
2021-11-04 13:25:00,,0829.6,4.99,0.00,24.2,23.3,00.0,33.3,26.0,16.1,0000.0,0003.57,0003.01,0002.80
2021-11-04 13:26:00,,0829.5,5.01,0.00,24.2,23.3,00.0,33.3,26.0,16.1,0000.0,0003.63,0003.03,0002.80
2021-11-04 13:27:00,,0829.6,5.00,0.00,24.2,23.3,00.0,33.3,26.0,16.1,0000.0,0003.63,0003.02,0002.81
2021-11-04 13:28:00,,0829.6,4.99,0.00,24.2,23.3,00.0,33.3,26.0,16.1,0000.0,0003.70,0003.05,0002.82
2021-11-04 13:29:00,,0829.6,5.01,0.00,24.2,23.3,00.0,33.3,26.0,16.1,0000.0,0003.77,0003.07,0002.81
2021-11-04 13:30:00,,0829.5,5.00,0.00,24.2,23.3,00.0,33.2,26.0,16.1,0000.0,0003.72,0003.04,0002.78
2021-11-04 13:31:00,,0829.6,5.00,0.00,24.2,23.3,00.0,33.2,26.0,16.1,0000.0,0003.65,0003.01,0002.76
2021-11-04 13:32:00,,0829.6,5.01,0.00,24.2,23.3,00.0,33.2,26.0,16.1,0000.0,0004.38,0003.02,0002.77
2021-11-04 13:33:00,,0829.5,5.00,0.00,24.2,23.3,00.0,33.2,25.9,16.1,0000.0,0004.86,0003.05,0002.78
2021-11-04 13:34:00,,0829.6,4.99,0.00,24.2,23.2,00.0,33.2,25.9,15.9,0000.0,0005.53,0003.04,0002.76
2021-11-04 13:35:00,,0829.6,5.00,0.00,24.2,23.2,00.0,33.2,25.9,15.8,0000.0,0005.46,0003.00,0002.71
2021-11-04 13:36:00,,0829.6,5.01,0.00,24.2,23.2,00.0,33.2,26.0,15.8,0000.0,0005.38,0002.96,0002.67
2021-11-04 13:37:00,,0829.6,4.99,0.00,24.1,23.2,00.0,33.2,25.9,15.8,0000.0,0005.30,0002.91,0002.62
2021-11-04 13:38:00,,0829.5,5.00,0.00,24.1,23.2,00.0,33.2,25.9,15.7,0000.0,0005.24,0002.84,0002.52
2021-11-04 13:39:00,,0829.6,5.01,0.00,24.1,23.2,00.0,33.2,25.9,15.7,0000.0,0005.20,0002.77,0002.44
2021-11-04 13:40:00,,0829.5,5.00,0.00,24.1,23.2,00.0,33.2,25.9,15.7,0000.0,0005.06,0002.69,0002.39
2021-11-04 13:41:00,,0829.5,4.99,0.00,24.1,23.2,00.0,33.2,25.9,15.7,0000.0,0005.03,0002.65,0002.35
2021-11-04 13:42:00,,0829.5,5.00,0.00,24.1,23.2,00.0,33.2,25.9,15.6,0000.0,0005.01,0002.63,0002.32
2021-11-04 13:43:00,,0829.5,5.00,0.00,24.1,23.2,00.0,33.2,25.9,15.6,0000.0,0004.47,0002.59,0002.30
2021-11-04 13:44:00,,0829.5,5.01,0.00,24.1,23.2,00.0,33.2,25.9,15.5,0000.0,0004.00,0002.53,0002.27
2021-11-04 13:45:00,,0829.5,4.99,0.00,24.1,23.2,00.0,33.2,25.9,15.6,0000.0,0003.03,0002.52,0002.26
2021-11-04 13:46:00,,0829.5,5.01,0.00,24.1,23.2,00.0,33.2,25.9,15.6,0000.0,0003.03,0002.53,0002.28
2021-11-04 13:47:00,,0829.5,4.99,0.00,24.1,23.2,00.0,33.2,25.9,15.5,0000.0,0003.10,0002.59,0002.31
2021-11-04 13:48:00,,0829.5,5.00,0.00,24.1,23.2,00.0,33.2,25.9,15.5,0000.0,0003.18,0002.62,0002.35
2021-11-04 13:49:00,,0829.6,5.01,0.00,24.1,23.2,00.0,33.2,25.9,15.5,0000.0,0003.25,0002.63,0002.37
2021-11-04 13:50:00,,0829.5,5.00,0.00,24.1,23.2,00.0,33.2,25.9,15.5,0000.0,0003.24,0002.66,0002.42
2021-11-04 13:51:00,,0829.5,5.00,0.00,24.1,23.2,00.0,33.2,25.9,15.6,0000.0,0003.45,0002.71,0002.45
2021-11-04 13:52:00,,0829.5,5.00,0.00,24.1,23.2,00.0,33.1,25.9,15.6,0000.0,0003.48,0002.75,0002.49
2021-11-04 13:53:00,,0829.6,5.00,0.00,24.1,23.2,00.0,33.1,25.9,15.6,0000.0,0003.55,0002.81,0002.53
2021-11-04 13:54:00,,0829.5,4.99,0.00,24.1,23.2,00.0,33.1,25.9,15.5,0000.0,0003.67,0002.87,0002.57
2021-11-04 13:55:00,,0829.5,5.01,0.00,24.1,23.2,00.0,33.1,25.9,15.2,0000.0,0003.74,0002.90,0002.58
2021-11-04 13:56:00,,0829.5,5.00,0.00,24.1,23.2,00.0,33.1,25.9,15.3,0000.0,0003.74,0002.91,0002.60
2021-11-04 13:57:00,,0829.5,5.00,0.00,24.1,23.2,00.0,33.1,25.9,15.4,0000.0,0003.85,0002.93,0002.63
2021-11-04 13:58:00,,0829.5,4.99,0.00,24.1,23.2,00.0,33.1,25.9,15.4,0000.0,0003.90,0002.95,0002.64
2021-11-04 13:59:00,,0829.4,4.98,0.00,24.1,23.2,00.0,33.1,25.9,15.0,0000.0,0003.79,0002.90,0002.62
